Weather in Almenevo

Russia / Kurgan Oblast     54°56′39″N   63°34′49″E
temp.,
°C
wind,
m/s
gust,
m/s
humid.,
%
clouds,
%
prec.,
mm/h
press.,
hPa
HPBL,
m
26 may, thu
thu2623:00+15s458143 0.9 100872
02:00+13wsw359399 0.0 1009102
05:00+12wnw3595100 0.0 1009121
08:00+14nw5777100 0.0 1010379
11:00+13nnw71087100 1.0 1009631
14:00+14n7974100 0.1 1009765
17:00+14nnw8127659 0.4 1007672
20:00+11n91592100 4.9 1007642
27 may, fri
fri2723:00+11nnw101695100 11.9 1005752
02:00+10nw111787100 0.6 1006883
05:00+8nw81690100 6.1 1008939
08:00+9wnw8137822 0.1 1010919
11:00+13wnw810565 0.1 10111385
14:00+15wnw795237 0.0 10122021
17:00+15w4760100 0.0 1013544
20:00+14wsw22695 0.0 101321
28 may, sat
sat2823:00+10sw337671 0.0 101437
02:00+9sw347853 0.0 101459
05:00+9sw4786100 0.0 1014125
08:00+13sw477489 0.0 1014304
11:00+18sw686267 0.0 10131243
14:00+19sw685882 0.4 10141560
17:00+18sw476489 0.4 1014500
20:00+16sw487558 0.1 1015198
29 may, sun
sun2923:00+13sw37845 0.1 1016110
02:00+12sw368855 0.0 101793
05:00+11sw3689100 0.0 1017107
08:00+15sw487574 0.0 1018305
11:00+20sw6860100 0.0 1018938
14:00+22wsw675318 0.0 10191333
17:00+23wsw575994 0.1 10181631
20:00+19sw367727 0.3 1019111
30 may, mon
mon3023:00+16ssw48835 0.3 1019127
02:00+15sw412848 0.0 1018220
05:00+15sw6158390 0.0 1017362
08:00+17wsw71480100 0.0 1017567
11:00+16wnw7116598 0.1 1019903
14:00+19wnw810510 0.0 10201618
17:00+19nw68531 0.0 10201618
20:00+15wnw59705 0.0 1020299